Location: Cheching
(60.0667°N, 164.2167°W)
Time: 01:52:15
(UTC+00:00)

DX 1 - Pass Details

Date: 31 January 2021
Orbit: 618 x 631 km, 98.5° (Epoch: 07 March)

Event Time Altitude Azimuth Distance (km) Brightness Sun altitude
Rises 14:55:16 0° 119° (ESE) 2,909 ? -31.4°
Reaches altitude 10° 14:57:45 10° 106° (ESE) 2,003 ? -31.1°
Maximum altitude 15:01:15 24° 52° (NE) 1,292 ? -30.7°
Enters shadow 15:04:35 11° 360° (N) 1,945 ? -30.3°
